DW8923 Weather Reports


time (UTC)temp
C
wind
direction
speed
KPH
gust
KPH
rain 1hr
cm
rain 24hr
cm
rain mn
cm
humidity
%
barometer
mb
20260505183007 27 171 3.2 16.1 0.00 0.00 0.00 72 1006.1
20260505181503 26 199 4.8 14.5 0.00 0.00 0.00 75 1006.4
20260505180104 26 175 9.7 17.7 0.00 0.00 0.00 75 1006.4
20260505174559 25 126 4.8 14.5 0.00 0.00 0.00 77 1006.9
20260505173054 25 227 4.8 22.5 0.00 0.00 0.00 78 1006.9
20260505171550 24 155 4.8 14.5 0.00 0.00 0.00 81 1006.9
20260505170046 23 186 4.8 16.1 0.00 0.00 0.00 82 1007.0
20260505164556 23 192 4.8 19.3 0.00 0.00 0.00 83 1007.0
20260505163045 23 185 3.2 17.7 0.00 0.00 0.00 84 1007.1
20260505161540 23 231 3.2 9.7 0.00 0.00 0.00 85 1007.1
20260505153037 22 173 4.8 11.3 0.00 0.00 0.00 87 1006.9
20260505151524 22 122 4.8 11.3 0.00 0.00 0.00 88 1007.1
20260505124513 21 211 1.6 11.3 0.00 0.00 0.00 90 1005.9
20260505123012 21 146 6.4 17.7 0.00 0.00 0.00 90 1005.6
20260505121511 21 258 3.2 9.7 0.00 0.00 0.00 90 1005.4
20260505120010 21 165 3.2 11.3 0.00 0.00 0.00 89 1005.2
20260505114515 21 171 6.4 14.5 0.00 0.00 0.00 89 1005.0
20260505113008 21 150 3.2 12.9 0.00 0.00 0.00 89 1005.1
20260505111507 21 128 3.2 16.1 0.00 0.00 0.00 89 1005.0
20260505101604 21 176 3.2 16.1 0.00 0.00 0.00 89 1005.2
20260505100059 21 171 4.8 12.9 0.00 0.00 0.00 89 1005.5
20260505094606 21 165 3.2 14.5 0.00 0.00 0.00 88 1005.6
20260505093057 21 173 6.4 14.5 0.00 0.00 0.00 88 1005.7
20260505091600 21 142 6.4 12.9 0.00 0.00 0.00 88 1005.8
20260505090100 21 188 3.2 17.7 0.00 0.00 0.00 87 1005.9
20260505084553 21 126 3.2 12.9 0.00 0.00 0.00 87 1005.9
20260505083054 21 158 3.2 16.1 0.00 0.00 0.00 87 1005.8
20260505081558 21 179 4.8 12.9 0.00 0.00 0.00 87 1006.2
20260505080049 21 210 4.8 17.7 0.00 0.00 0.00 87 1006.3
20260505074604 21 134 6.4 19.3 0.00 0.00 0.00 87 1006.3
20260505073044 21 193 8.0 19.3 0.00 0.00 0.00 87 1006.4
20260505071542 21 114 4.8 19.3 0.00 0.00 0.00 86 1006.6
20260505070038 21 161 4.8 19.3 0.00 0.00 0.00 86 1006.9
20260505064537 21 128 6.4 22.5 0.00 0.00 0.00 86 1007.1
20260505063040 21 180 6.4 19.3 0.00 0.00 0.00 85 1007.0
20260505061540 21 184 6.4 25.7 0.00 0.00 0.00 85 1007.2
20260505060031 21 183 6.4 19.3 0.00 0.00 0.00 85 1007.3
20260505054536 21 132 6.4 19.3 0.00 0.00 0.00 85 1007.3
20260505053025 21 121 6.4 19.3 0.00 0.00 0.00 85 1007.1
20260505051523 21 205 6.4 19.3 0.00 0.00 0.00 85 1007.2
20260505041517 22 166 8.0 14.5 0.00 0.00 0.00 82 1007.3
20260505040016 22 159 4.8 17.7 0.00 0.00 0.00 81 1007.3
20260505034518 22 145 6.4 19.3 0.00 0.00 0.00 80 1007.4
20260505033028 23 144 6.4 14.5 0.00 0.00 0.00 79 1007.3
20260505031515 23 121 6.4 16.1 0.00 0.00 0.00 78 1007.2
20260505030013 23 146 3.2 16.1 0.00 0.00 0.00 76 1007.2
20260505024529 23 225 4.8 12.9 0.00 0.00 0.00 74 1007.1
20260505023012 23 132 4.8 12.9 0.00 0.00 0.00 73 1007.1
20260505021526 23 166 3.2 14.5 0.00 0.00 0.00 72 1007.1
20260505020010 23 170 1.6 8.0 0.00 0.00 0.00 70 1006.8
20260505014513 24 194 6.4 16.1 0.00 0.00 0.00 69 1006.9
20260505013009 24 193 4.8 12.9 0.00 0.00 0.00 67 1007.0
20260505011508 25 134 3.2 16.1 0.00 0.00 0.00 66 1007.0
20260505010007 25 124 3.2 14.5 0.00 0.00 0.00 65 1007.0
20260505004516 25 128 6.4 27.4 0.00 0.00 0.00 64 1006.9
20260505003006 26 160 6.4 14.5 0.00 0.00 0.00 64 1006.9
20260505001505 26 193 4.8 12.9 0.00 0.00 0.00 63 1006.8
20260505000004 26 124 6.4 17.7 0.00 0.00 0.00 62 1006.8
20260504234502 26 125 8.0 19.3 0.00 0.00 0.00 60 1006.8
20260504233002 27 144 9.7 19.3 0.00 0.00 0.00 60 1007.1
20260504231600 27 198 11.3 20.9 0.00 0.00 0.00 59 1007.1
20260504230101 27 136 8.0 22.5 0.00 0.00 0.00 58 1007.3
20260504224558 27 167 9.7 24.1 0.00 0.00 0.00 57 1007.4
20260504223102 28 134 11.3 24.1 0.00 0.00 0.00 56 1007.6
20260504221604 28 67 6.4 19.3 0.00 0.00 0.00 57 1007.7
20260504220117 28 213 6.4 24.1 0.00 0.00 0.00 57 1007.7
20260504214549 27 192 11.3 20.9 0.00 0.00 0.00 58 1008.0
20260504213102 27 168 8.0 19.3 0.00 0.00 0.00 58 1008.0
20260504211544 27 171 8.0 19.3 0.00 0.00 0.00 59 1008.5
20260504210043 27 163 12.9 22.5 0.00 0.00 0.00 57 1008.8
20260504204557 27 182 9.7 16.1 0.00 0.00 0.00 57 1009.1
20260504203041 27 140 8.0 22.5 0.00 0.00 0.00 58 1009.3
20260504201537 27 163 11.3 20.9 0.00 0.00 0.00 57 1009.5
20260504200041 27 134 8.0 19.3 0.00 0.00 0.00 57 1010.0
20260504194538 27 182 8.0 22.5 0.00 0.00 0.00 57 1010.2
20260504193031 27 130 8.0 25.7 0.00 0.00 0.00 59 1010.3
20260504191527 27 221 6.4 19.3 0.00 0.00 0.00 59 1010.7
20260504190025 26 132 8.0 17.7 0.00 0.00 0.00 61 1010.9
20260504184532 26 217 9.7 20.9 0.00 0.00 0.00 60 1011.0